CW6764 Weather Reports


time (UTC)temp
C
wind
direction
speed
KPH
gust
KPH
rain 1hr
cm
rain 24hr
cm
rain mn
cm
humidity
%
barometer
mb
20190423054907 11 250 0.0 0.0 0.00 0.23 0.00 90 997.4
20190423054407 11 250 0.0 0.0 0.00 0.23 0.00 90 997.4
20190423053906 11 250 0.0 8.0 0.00 0.23 0.00 90 997.4
20190423053407 11 250 0.0 8.0 0.00 0.23 0.00 91 997.4
20190423052906 11 250 0.0 8.0 0.00 0.23 0.00 90 997.4
20190423052407 11 250 0.0 0.0 0.00 0.23 0.00 90 997.4
20190423051907 11 250 0.0 0.0 0.00 0.23 0.00 90 997.3
20190423051407 10 250 0.0 0.0 0.00 0.23 0.00 90 997.3
20190423050907 10 250 0.0 0.0 0.00 0.23 0.00 91 997.2
20190423050407 10 250 0.0 0.0 0.00 0.23 0.00 91 997.1
20190423045907 10 250 0.0 3.2 0.00 0.23 0.00 90 997.0
20190423045407 10 250 0.0 8.0 0.00 0.23 0.00 90 997.0
20190423044907 10 250 0.0 11.3 0.00 0.23 0.00 90 997.0
20190423044407 11 250 3.2 11.3 0.00 0.23 0.00 90 996.9
20190423043906 10 250 1.6 11.3 0.00 0.23 0.00 90 996.9
20190423043407 11 255 1.6 8.0 0.00 0.23 0.00 90 997.0
20190423042907 11 275 0.0 0.0 0.00 0.23 0.00 91 997.0
20190423042407 11 275 0.0 0.0 0.00 0.23 0.00 91 997.0
20190423041906 11 275 0.0 0.0 0.00 0.23 0.00 91 997.1
20190423041407 11 275 0.0 0.0 0.00 0.23 0.00 91 997.0
20190423040907 11 275 0.0 0.0 0.00 0.23 0.00 91 997.0
20190423040406 11 275 0.0 4.8 0.00 0.23 0.00 91 997.1
20190423035906 10 275 0.0 4.8 0.00 0.23 0.00 91 997.1
20190423035407 10 275 0.0 9.7 0.00 0.23 0.00 90 997.1
20190423034907 11 275 0.0 9.7 0.00 0.23 0.00 90 997.1
20190423034407 11 272 1.6 9.7 0.00 0.23 0.00 90 997.2
20190423033906 11 259 0.0 8.0 0.00 0.23 0.00 91 997.2
20190423033406 11 269 3.2 8.0 0.00 0.23 0.00 90 997.2
20190423032907 11 269 0.0 8.0 0.00 0.23 0.00 90 997.3
20190423032407 11 270 0.0 8.0 0.00 0.23 0.00 90 997.3
20190423031907 10 271 0.0 4.8 0.00 0.23 0.00 90 997.5
20190423031407 11 271 0.0 4.8 0.00 0.23 0.00 90 997.5
20190423030906 11 271 0.0 8.0 0.00 0.23 0.00 90 997.5
20190423030407 11 271 1.6 8.0 0.00 0.23 0.00 90 997.6
20190423025907 11 270 1.6 8.0 0.00 0.23 0.00 90 997.6
20190423025407 11 270 0.0 8.0 0.00 0.23 0.00 90 997.7
20190423024906 11 270 0.0 8.0 0.00 0.23 0.00 90 997.7
20190423024407 11 269 0.0 4.8 0.00 0.23 0.00 90 997.7
20190423023907 11 269 0.0 4.8 0.00 0.23 0.00 90 997.8
20190423023406 11 270 0.0 4.8 0.00 0.23 0.00 90 997.8
20190423022906 11 268 0.0 0.0 0.00 0.23 0.00 90 997.8
20190423022407 11 268 0.0 0.0 0.00 0.23 0.00 90 997.8
20190423021907 11 269 0.0 0.0 0.00 0.23 0.00 90 997.8
20190423021407 11 269 0.0 0.0 0.00 0.23 0.00 90 997.8
20190423020906 11 269 0.0 0.0 0.00 0.23 0.00 89 997.8
20190423020407 11 269 0.0 0.0 0.00 0.23 0.00 89 997.9
20190423015907 11 269 0.0 0.0 0.00 0.23 0.00 89 997.9
20190423015407 11 269 0.0 0.0 0.00 0.23 0.00 89 998.0
20190423014907 11 270 0.0 4.8 0.00 0.23 0.00 89 998.0
20190423014406 11 270 1.6 8.0 0.00 0.23 0.00 89 998.1
20190423013906 11 274 1.6 8.0 0.00 0.23 0.00 88 998.2
20190423013406 12 75 0.0 0.0 0.00 0.23 0.00 88 998.2
20190423012906 12 84 0.0 1.6 0.00 0.23 0.00 88 998.2
20190423012407 12 84 0.0 1.6 0.00 0.23 0.00 87 998.2
20190423011906 12 84 0.0 0.0 0.00 0.23 0.00 87 998.2
20190423011406 12 84 0.0 0.0 0.00 0.23 0.00 87 998.3
20190423010907 12 84 0.0 0.0 0.00 0.23 0.00 87 998.4
20190423010407 12 85 0.0 0.0 0.00 0.23 0.00 87 998.6
20190423005907 12 85 0.0 0.0 0.00 0.23 0.00 86 998.6
20190423005406 12 85 0.0 0.0 0.00 0.23 0.00 86 998.6
20190423004906 12 85 0.0 0.0 0.00 0.23 0.00 86 998.6
20190423004407 12 85 0.0 0.0 0.00 0.23 0.00 86 998.6
20190423003907 12 85 0.0 0.0 0.00 0.23 0.00 85 998.6
20190423003406 12 85 0.0 0.0 0.00 0.23 0.00 85 998.6
20190423002906 13 85 0.0 0.0 0.00 0.23 0.00 85 998.7
20190423002406 13 85 0.0 0.0 0.00 0.23 0.00 85 998.7
20190423001907 13 85 0.0 0.0 0.00 0.23 0.00 84 998.9
20190423001406 13 85 0.0 0.0 0.00 0.23 0.00 84 999.0
20190423000907 13 85 0.0 0.0 0.00 0.23 0.00 84 999.1
20190423000406 13 86 0.0 0.0 0.00 0.23 0.00 83 999.1
20190422235906 13 85 0.0 0.0 0.00 0.23 0.23 83 999.1
20190422235407 13 86 0.0 0.0 0.00 0.23 0.23 83 999.2
20190422234907 13 85 0.0 0.0 0.00 0.23 0.23 83 999.2
20190422234406 13 86 0.0 0.0 0.00 0.23 0.23 83 999.2
20190422233906 13 85 0.0 0.0 0.00 0.23 0.23 82 999.2
20190422233407 13 85 0.0 0.0 0.00 0.23 0.23 82 999.1
20190422232907 13 86 0.0 0.0 0.00 0.23 0.23 82 999.1
20190422232407 13 86 0.0 0.0 0.00 0.23 0.23 82 999.2
20190422231906 13 85 0.0 0.0 0.00 0.23 0.23 82 999.2
20190422231407 13 86 0.0 0.0 0.00 0.23 0.23 82 999.2
20190422230906 13 85 0.0 0.0 0.00 0.23 0.23 82 999.2
20190422230406 14 86 0.0 0.0 0.00 0.23 0.23 82 999.3
20190422225907 14 85 0.0 0.0 0.00 0.23 0.23 82 999.2
20190422225406 14 85 0.0 0.0 0.00 0.23 0.23 81 999.3
20190422224906 14 85 0.0 0.0 0.00 0.23 0.23 81 999.3
20190422224406 14 85 0.0 0.0 0.00 0.23 0.23 81 999.4
20190422223906 14 85 0.0 0.0 0.00 0.23 0.23 81 999.4
20190422223407 14 85 0.0 0.0 0.00 0.23 0.23 81 999.4
20190422222907 14 85 0.0 8.0 0.00 0.23 0.23 81 999.5
20190422222406 14 85 1.6 8.0 0.00 0.23 0.23 81 999.5
20190422221906 14 151 0.0 4.8 0.00 0.23 0.23 81 999.6
20190422221406 14 184 0.0 0.0 0.00 0.23 0.23 81 999.6
20190422220906 14 184 0.0 0.0 0.00 0.23 0.23 80 999.6
20190422220407 14 184 0.0 0.0 0.00 0.23 0.23 80 999.6
20190422215906 14 184 0.0 0.0 0.00 0.23 0.23 80 999.7
20190422215406 14 184 0.0 0.0 0.00 0.23 0.23 79 999.6
20190422214906 14 184 0.0 0.0 0.00 0.23 0.23 79 999.6
20190422214407 14 184 0.0 0.0 0.00 0.23 0.23 79 999.7
20190422213906 14 184 0.0 4.8 0.00 0.23 0.23 79 999.7
20190422213406 14 184 1.6 4.8 0.00 0.23 0.23 80 999.7
20190422212907 14 184 0.0 0.0 0.00 0.23 0.23 80 999.7
20190422212407 14 184 0.0 0.0 0.00 0.23 0.23 80 999.9
20190422211906 14 184 0.0 0.0 0.00 0.23 0.23 80 1000.0
20190422211406 14 184 0.0 0.0 0.00 0.23 0.23 80 999.9
20190422210906 14 184 0.0 0.0 0.00 0.23 0.23 80 1000.0
20190422210407 14 184 0.0 0.0 0.00 0.23 0.23 80 999.9
20190422205907 14 184 0.0 0.0 0.00 0.23 0.23 80 1000.0
20190422205406 14 184 0.0 0.0 0.00 0.23 0.23 80 1000.0
20190422204906 14 184 0.0 0.0 0.00 0.23 0.23 80 1000.0
20190422204406 14 184 0.0 0.0 0.00 0.23 0.23 80 1000.0
20190422203906 14 184 0.0 0.0 0.00 0.23 0.23 80 1000.0
20190422203406 14 184 0.0 0.0 0.00 0.25 0.23 80 1000.0
20190422202906 14 184 0.0 0.0 0.00 0.28 0.23 80 999.9
20190422202406 14 184 0.0 0.0 0.00 0.28 0.23 80 1000.0
20190422201906 14 184 0.0 0.0 0.00 0.28 0.23 80 1000.0
20190422201406 14 184 0.0 0.0 0.00 0.28 0.23 80 1000.0
20190422200906 14 184 0.0 0.0 0.00 0.28 0.23 80 1000.0
20190422200406 15 184 0.0 0.0 0.00 0.30 0.23 80 999.9
20190422195906 15 184 0.0 0.0 0.00 0.30 0.23 80 999.9
20190422195406 15 184 0.0 0.0 0.00 0.30 0.23 80 999.8
20190422194906 15 184 0.0 0.0 0.00 0.33 0.23 80 999.8
20190422194407 15 184 0.0 0.0 0.00 0.33 0.23 80 999.8
20190422193906 15 184 0.0 0.0 0.00 0.36 0.23 80 999.8
20190422193406 15 184 0.0 0.0 0.00 0.36 0.23 80 999.8
20190422192906 15 184 0.0 0.0 0.00 0.38 0.23 80 999.8
20190422192406 15 184 0.0 0.0 0.00 0.41 0.23 80 999.7
20190422191907 15 184 0.0 3.2 0.00 0.43 0.23 80 999.6
20190422191406 15 184 0.0 3.2 0.00 0.43 0.23 80 999.6
20190422190906 15 184 0.0 0.0 0.00 0.43 0.23 80 999.6
20190422190407 15 184 0.0 0.0 0.00 0.43 0.23 80 999.5
20190422185906 15 184 0.0 0.0 0.00 0.43 0.23 80 999.4
20190422185407 15 184 0.0 1.6 0.00 0.43 0.23 80 999.3
20190422184906 15 184 0.0 1.6 0.00 0.43 0.23 80 999.3
20190422184406 15 184 0.0 1.6 0.00 0.43 0.23 80 999.3
20190422183906 15 184 0.0 0.0 0.00 0.43 0.23 80 999.2
20190422183406 15 184 0.0 0.0 0.00 0.43 0.23 80 999.2
20190422182906 15 184 0.0 4.8 0.00 0.43 0.23 80 999.2
20190422182406 15 184 0.0 4.8 0.00 0.43 0.23 80 999.1
20190422181906 15 183 1.6 4.8 0.00 0.43 0.23 80 999.1
20190422181406 15 184 0.0 4.8 0.00 0.43 0.23 80 999.2
20190422180906 15 154 0.0 4.8 0.00 0.43 0.23 81 999.1
20190422180406 15 153 1.6 4.8 0.00 0.43 0.23 81 999.1
20190422175906 15 150 0.0 1.6 0.00 0.43 0.23 81 999.1
20190422175407 15 140 0.0 1.6 0.00 0.43 0.23 81 999.2
20190422174911 15 140 0.0 0.0 0.00 0.43 0.23 81 999.1
20190422174406 15 140 0.0 0.0 0.00 0.43 0.23 81 999.1
20190422173906 15 140 0.0 1.6 0.00 0.43 0.23 81 999.1
20190422173406 15 140 0.0 1.6 0.00 0.43 0.23 82 999.2
20190422172906 15 140 0.0 0.0 0.00 0.43 0.23 82 999.1
20190422172406 15 140 0.0 0.0 0.00 0.43 0.23 82 999.2
20190422171907 15 140 0.0 0.0 0.00 0.43 0.23 81 999.1
20190422171406 15 140 0.0 0.0 0.00 0.43 0.23 81 999.1
20190422170906 15 140 0.0 0.0 0.00 0.43 0.23 81 999.1
20190422170406 15 140 0.0 1.6 0.00 0.43 0.23 81 999.2
20190422165906 15 140 0.0 1.6 0.00 0.43 0.23 81 999.2
20190422165405 15 140 0.0 0.0 0.00 0.43 0.23 80 999.2
20190422164906 15 140 0.0 0.0 0.00 0.43 0.23 80 999.3
20190422164406 16 140 0.0 0.0 0.00 0.43 0.23 80 999.2
20190422163906 16 140 0.0 0.0 0.00 0.43 0.23 79 999.3
20190422163406 16 139 0.0 0.0 0.00 0.43 0.23 78 999.3
20190422162905 16 140 0.0 3.2 0.00 0.43 0.23 78 999.3
20190422162406 16 141 0.0 3.2 0.00 0.43 0.23 77 999.3
20190422161906 16 148 0.0 0.0 0.00 0.43 0.23 77 999.3
20190422161406 16 148 0.0 0.0 0.00 0.43 0.23 76 999.3
20190422160906 16 148 0.0 0.0 0.00 0.43 0.23 75 999.3
20190422160406 16 167 0.0 0.0 0.00 0.43 0.23 74 999.3
20190422155906 16 168 0.0 0.0 0.00 0.43 0.23 74 999.3
20190422155406 16 170 0.0 3.2 0.00 0.43 0.23 73 999.3
20190422154906 16 170 0.0 3.2 0.00 0.43 0.23 73 999.3
20190422154405 16 171 0.0 1.6 0.00 0.43 0.23 73 999.2
20190422153906 16 171 0.0 1.6 0.00 0.43 0.23 73 999.3
20190422153405 16 174 0.0 0.0 0.00 0.43 0.23 73 999.4
20190422152906 16 259 0.0 0.0 0.00 0.43 0.23 72 999.4
20190422152406 16 259 0.0 0.0 0.00 0.43 0.23 72 999.4
20190422151906 16 260 0.0 0.0 0.00 0.43 0.23 72 999.4
20190422151406 16 260 0.0 0.0 0.00 0.43 0.23 71 999.4
20190422150906 16 260 0.0 0.0 0.00 0.43 0.23 71 999.3
20190422150406 16 260 0.0 0.0 0.00 0.43 0.23 71 999.3
20190422145906 16 260 0.0 0.0 0.00 0.43 0.23 71 999.3
20190422145406 16 260 0.0 0.0 0.00 0.43 0.23 71 999.3
20190422144906 16 260 0.0 0.0 0.00 0.43 0.23 70 999.3
20190422144406 16 260 0.0 0.0 0.00 0.43 0.23 70 999.3
20190422143906 16 260 0.0 0.0 0.00 0.43 0.23 71 999.4
20190422143406 16 260 0.0 0.0 0.00 0.43 0.23 71 999.5
20190422142906 16 260 0.0 0.0 0.00 0.43 0.23 71 999.5
20190422142406 16 260 0.0 0.0 0.00 0.43 0.23 71 999.5
20190422141905 16 260 0.0 0.0 0.00 0.43 0.23 72 999.6
20190422141406 16 260 0.0 0.0 0.00 0.43 0.23 73 999.7
20190422140906 16 260 0.0 0.0 0.00 0.43 0.23 74 999.7
20190422140405 16 260 0.0 1.6 0.00 0.43 0.23 74 999.8
20190422135906 16 260 0.0 1.6 0.00 0.43 0.23 74 999.8
20190422135406 16 261 0.0 1.6 0.00 0.43 0.23 73 999.9
20190422134906 16 261 0.0 1.6 0.00 0.43 0.23 74 999.9
20190422134406 16 261 0.0 1.6 0.00 0.43 0.23 74 999.9
20190422133906 16 261 0.0 1.6 0.00 0.43 0.23 75 999.9
20190422133406 16 263 0.0 1.6 0.00 0.43 0.23 76 1000.0
20190422132906 16 263 0.0 0.0 0.00 0.43 0.23 76 1000.0
20190422132406 16 263 0.0 0.0 0.00 0.43 0.23 78 1000.1
20190422131906 16 263 0.0 4.8 0.00 0.43 0.23 78 1000.0
20190422131405 16 263 0.0 4.8 0.00 0.43 0.23 79 1000.0
20190422130906 15 264 1.6 4.8 0.00 0.43 0.23 80 1000.0
20190422130406 15 261 0.0 9.7 0.00 0.43 0.23 81 1000.0
20190422125905 15 272 1.6 9.7 0.00 0.43 0.23 82 1000.0
20190422125406 15 268 1.6 9.7 0.00 0.43 0.23 84 1000.1
20190422124906 15 263 1.6 8.0 0.00 0.43 0.23 85 1000.0
20190422124405 15 263 1.6 9.7 0.03 0.43 0.23 85 1000.0
20190422123906 15 263 3.2 9.7 0.03 0.43 0.23 86 1000.0
20190422123405 15 245 1.6 8.0 0.03 0.43 0.23 86 1000.0
20190422122906 14 247 0.0 9.7 0.03 0.43 0.23 86 1000.1
20190422122406 14 251 1.6 11.3 0.03 0.43 0.23 86 1000.1
20190422121906 14 246 3.2 11.3 0.03 0.43 0.23 86 1000.1
20190422121406 14 260 4.8 11.3 0.03 0.43 0.23 86 1000.2
20190422120906 13 249 1.6 11.3 0.03 0.43 0.23 86 1000.2
20190422120405 13 247 4.8 11.3 0.03 0.43 0.23 87 1000.3
20190422115906 13 250 0.0 8.0 0.03 0.43 0.23 87 1000.3
20190422115406 13 226 3.2 8.0 0.03 0.43 0.23 87 1000.4
20190422114906 13 221 0.0 4.8 0.03 0.43 0.23 87 1000.6
20190422114406 13 221 0.0 9.7 0.03 0.43 0.20 87 1000.7
20190422113905 13 219 3.2 9.7 0.03 0.43 0.20 86 1000.7
20190422113406 13 254 1.6 16.1 0.03 0.43 0.20 86 1000.8
20190422112906 13 256 4.8 16.1 0.03 0.43 0.20 86 1000.8
20190422112406 13 231 1.6 9.7 0.03 0.43 0.20 87 1000.8
20190422111906 13 232 1.6 9.7 0.03 0.43 0.20 87 1000.8
20190422111406 13 232 1.6 9.7 0.03 0.43 0.20 87 1000.8
20190422110906 13 220 3.2 4.8 0.05 0.43 0.20 87 1000.9
20190422110406 13 232 1.6 4.8 0.05 0.43 0.20 86 1000.9
20190422105906 13 236 1.6 4.8 0.05 0.43 0.20 86 1001.0
20190422105406 13 256 0.0 4.8 0.05 0.43 0.20 86 1001.0
20190422104906 13 167 0.0 3.2 0.08 0.43 0.20 86 1001.1
20190422104406 13 167 0.0 3.2 0.08 0.41 0.18 86 1001.2
20190422103906 13 165 0.0 1.6 0.08 0.41 0.18 86 1001.3
20190422103406 13 150 0.0 0.0 0.10 0.41 0.18 86 1001.3
20190422102905 13 150 0.0 1.6 0.10 0.41 0.18 85 1001.4
20190422102405 12 150 0.0 1.6 0.13 0.41 0.18 85 1001.5
20190422101906 12 150 0.0 1.6 0.13 0.41 0.18 84 1001.6
20190422101406 12 150 0.0 0.0 0.15 0.41 0.18 84 1001.7
20190422100906 12 150 0.0 0.0 0.13 0.38 0.15 83 1001.7
20190422100406 13 150 0.0 0.0 0.15 0.38 0.15 83 1001.7
20190422095905 13 150 0.0 1.6 0.13 0.36 0.15 83 1001.7
20190422095406 13 151 0.0 1.6 0.13 0.36 0.15 83 1001.7
20190422094906 13 151 0.0 0.0 0.10 0.33 0.13 83 1001.7
20190422094406 13 151 0.0 0.0 0.08 0.33 0.10 82 1001.6
20190422093906 13 151 0.0 0.0 0.08 0.33 0.10 83 1001.6
20190422093405 13 151 0.0 0.0 0.05 0.30 0.08 83 1001.6
20190422092906 13 151 0.0 0.0 0.05 0.30 0.08 83 1001.6
20190422092406 13 151 0.0 0.0 0.05 0.28 0.05 83 1001.6
20190422091412 13 151 0.0 0.0 0.03 0.25 0.05 83 1001.4
20190422090907 13 151 0.0 0.0 0.03 0.25 0.05 82 1001.4
20190422090407 13 151 0.0 0.0 0.00 0.23 0.03 82 1001.4
20190422085905 13 151 0.0 0.0 0.00 0.23 0.03 82 1001.3
20190422085406 13 151 0.0 0.0 0.00 0.23 0.03 81 1001.2
20190422084905 13 151 0.0 0.0 0.00 0.23 0.03 81 1001.2
20190422084405 13 151 0.0 0.0 0.00 0.23 0.03 81 1001.1
20190422083906 13 151 0.0 0.0 0.00 0.23 0.03 80 1001.1
20190422083406 13 151 0.0 0.0 0.00 0.23 0.03 80 1001.1
20190422082905 13 151 0.0 0.0 0.00 0.23 0.03 79 1001.1
20190422082406 13 151 0.0 0.0 0.00 0.23 0.03 79 1001.1
20190422081905 13 151 0.0 0.0 0.00 0.23 0.03 79 1001.0
20190422081405 13 151 0.0 0.0 0.00 0.23 0.03 80 1001.1
20190422080906 13 151 0.0 0.0 0.00 0.23 0.03 80 1001.1
20190422080406 13 151 0.0 0.0 0.00 0.23 0.03 79 1001.0
20190422075906 13 151 0.0 0.0 0.03 0.23 0.03 79 1001.0
20190422075406 13 152 0.0 0.0 0.03 0.23 0.03 79 1001.0
20190422074905 13 153 0.0 0.0 0.03 0.23 0.03 80 1001.0
20190422074406 12 154 0.0 0.0 0.03 0.23 0.03 80 1001.0
20190422073906 12 155 0.0 0.0 0.03 0.23 0.03 81 1001.0
20190422073405 12 156 0.0 0.0 0.03 0.23 0.03 81 1001.0
20190422072906 12 156 0.0 1.6 0.03 0.23 0.03 81 1001.0
20190422072405 12 156 0.0 1.6 0.03 0.23 0.03 82 1001.0
20190422071905 12 261 0.0 0.0 0.03 0.23 0.03 82 1001.0
20190422071406 12 263 0.0 0.0 0.03 0.23 0.03 82 1001.0
20190422070905 12 263 0.0 0.0 0.03 0.23 0.03 82 1001.0
20190422070406 12 270 0.0 0.0 0.03 0.23 0.03 82 1001.1
20190422065905 12 270 0.0 1.6 0.00 0.23 0.00 82 1001.1
20190422065406 12 270 0.0 1.6 0.00 0.23 0.00 82 1001.1
20190422064905 12 272 0.0 3.2 0.00 0.23 0.00 82 1001.2
20190422064405 12 272 0.0 3.2 0.00 0.23 0.00 82 1001.2
20190422063906 12 273 0.0 0.0 0.00 0.23 0.00 81 1001.2
20190422063406 12 273 0.0 1.6 0.00 0.23 0.00 82 1001.2
20190422062918 12 273 0.0 8.0 0.00 0.23 0.00 81 1001.2
20190422062405 12 273 0.0 8.0 0.00 0.23 0.00 82 1001.2
20190422061905 12 273 0.0 8.0 0.00 0.23 0.00 81 1001.2
20190422061406 12 273 0.0 4.8 0.00 0.23 0.00 81 1001.2
20190422060905 12 273 0.0 4.8 0.00 0.23 0.00 81 1001.2
20190422060405 12 276 0.0 8.0 0.00 0.23 0.00 81 1001.2
20190422055906 12 276 1.6 8.0 0.00 0.23 0.00 80 1001.2
20190422055406 12 275 1.6 4.8 0.00 0.23 0.00 80 1001.2